Temperature
10 11 11 11 12 11 11 12 12 13 13 16 16 14 14 16 17 16 17 17 17 16 16 15 13 12 11 9 7 6 4 3 2 1 1 -0 -1 -1 -2 -3 -3 -4 -4 -5
10 11 10 10 11 12 12 12 12 13 14 16 15 15 14 15 15 15 17 17 17 16 16 15 14 13 12 10 8 6 4 3 2 1 0 -0 -1 -2 -2 -3 -3 -4 -4 -5
8 10 10 10 12 12 11 10 11 12 13 14 12 11 13 15 16 16 17 17 17 16 16 15 14 13 12 11 9 6 4 3 2 1 0 -0 -1 -2 -2 -3 -3 -4 -4 -5
6 9 10 13 13 12 12 11 11 12 13 12 12 14 15 16 16 17 17 17 17 16 15 15 14 13 12 10 8 6 5 3 2 1 0 -1 -1 -2 -2 -3 -3 -4 -4 -5
6 7 9 10 11 11 11 11 12 12 12 13 13 12 15 18 17 17 16 16 15 15 14 14 13 13 11 10 8 6 5 3 2 1 0 -1 -1 -1 -2 -3 -3 -4 -4 -5
6 6 8 12 13 13 13 12 13 12 11 12 11 10 13 17 16 16 15 15 15 14 14 14 13 12 11 10 8 7 6 4 3 1 0 -0 -1 -2 -2 -3 -3 -4 -4 -5
6 6 8 10 11 12 12 13 14 14 14 13 11 12 15 15 15 15 15 14 14 14 13 13 12 11 10 9 9 8 6 4 2 1 0 -1 -1 -2 -2 -3 -3 -4 -4 -5
5 5 8 10 10 11 13 14 15 15 15 14 14 14 14 14 14 14 14 13 13 13 13 12 12 11 10 9 9 7 5 3 2 1 -0 -1 -1 -2 -2 -3 -3 -4 -4 -5
7 10 11 11 12 14 14 14 15 14 14 14 13 13 13 13 13 13 13 13 12 12 12 12 11 10 9 9 7 6 4 3 2 1 -0 -1 -1 -2 -2 -3 -3 -4 -4 -5
6 7 9 12 12 13 14 13 13 13 13 13 12 12 12 12 12 12 12 11 11 11 11 11 11 10 9 8 6 5 4 3 2 1 -0 -1 -1 -2 -2 -3 -3 -4 -4 -5
7 8 10 12 13 13 13 12 12 12 12 11 11 11 11 11 11 10 10 11 11 10 10 10 10 9 8 7 5 4 3 2 1 0 -0 -1 -1 -2 -2 -2 -3 -4 -4 -5
10 11 10 11 11 11 11 11 10 10 10 10 10 10 10 9 9 9 10 10 10 9 9 9 9 9 8 6 5 3 2 1 1 0 -1 -1 -1 -2 -2 -3 -3 -4 -4 -5
10 10 10 10 10 10 9 9 9 9 9 8 8 8 8 8 8 8 9 9 9 8 8 8 8 8 7 5 4 3 2 1 0 -0 -1 -1 -1 -2 -2 -3 -4 -4 -5 -5
9 9 9 9 8 8 8 8 8 8 7 7 7 7 7 7 7 7 8 8 8 8 8 8 7 7 6 4 3 2 1 -0 -1 -1 -1 -1 -1 -2 -2 -3 -3 -4 -5 -5
8 8 8 7 7 7 7 7 6 6 6 6 6 6 6 6 6 6 6 6 7 7 7 7 6 6 4 3 2 1 -0 -1 -2 -2 -2 -1 -1 -2 -2 -3 -3 -4 -5 -5
6 6 6 6 6 6 5 5 5 5 5 5 5 5 5 4 4 5 5 5 5 5 6 6 6 5 4 2 1 -0 -1 -2 -3 -3 -3 -2 -2 -2 -3 -3 -3 -4 -5 -5
6 5 5 5 5 5 4 4 4 4 4 3 3 3 3 3 3 4 4 4 4 5 5 5 5 4 3 2 0 -1 -2 -3 -5 -4 -4 -3 -2 -2 -2 -3 -3 -4 -4 -5
5 5 5 4 4 4 4 3 3 3 3 3 2 2 2 2 2 2 2 3 3 4 5 4 4 3 3 1 -1 -2 -3 -4 -5 -5 -4 -3 -3 -2 -3 -3 -3 -4 -4 -5
5 4 4 4 3 3 3 3 3 3 2 2 2 1 1 1 1 1 1 1 2 2 3 3 2 2 2 0 -1 -3 -4 -5 -5 -5 -5 -4 -3 -3 -3 -3 -3 -4 -4 -5
4 4 4 4 3 3 3 3 2 2 2 1 1 1 1 1 1 1 1 1 1 1 2 2 1 1 0 -1 -2 -3 -5 -5 -6 -6 -5 -5 -4 -3 -3 -3 -3 -4 -4 -5
4 3 3 3 3 3 2 2 2 1 1 1 1 0 0 0 0 -0 -0 -0 1 1 1 1 1 0 -0 -2 -3 -4 -5 -6 -6 -6 -6 -5 -4 -3 -3 -3 -3 -4 -4 -5
3 3 3 2 2 2 2 2 1 1 1 0 0 -0 -0 -1 -1 -1 -0 -0 0 0 0 0 -0 -1 -1 -3 -4 -5 -6 -6 -7 -7 -6 -5 -5 -4 -3 -3 -3 -4 -4 -5
2 2 2 2 1 1 1 1 1 0 0 -0 -0 -1 -1 -1 -1 -1 -1 -0 -1 -0 -1 -1 -1 -1 -2 -4 -5 -6 -6 -7 -7 -7 -6 -5 -4 -4 -3 -3 -3 -3 -4 -4
1 1 1 1 1 1 1 1 0 -0 -0 -0 -1 -1 -1 -1 -1 -1 -1 -1 -1 -1 -1 -1 -1 -2 -3 -4 -5 -6 -7 -7 -7 -7 -6 -5 -5 -4 -4 -3 -3 -3 -4 -5
0 0 0 0 -0 -0 -0 -0 -1 -1 -1 -1 -1 -1 -1 -1 -1 -1 -1 -1 -1 -1 -1 -1 -2 -3 -4 -5 -5 -6 -7 -7 -7 -7 -6 -6 -5 -4 -4 -3 -3 -3 -4 -4
-1 -1 -1 -1 -1 -1 -1 -1 -2 -2 -2 -2 -2 -1 -1 -1 -1 -1 -1 -1 -1 -1 -1 -2 -2 -3 -4 -5 -5 -6 -7 -7 -7 -7 -6 -6 -5 -4 -4 -4 -3 -4 -4 -4
-1 -1 -1 -1 -1 -1 -2 -2 -2 -2 -2 -2 -2 -2 -1 -1 -1 -1 -1 -1 -1 -1 -1 -2 -2 -3 -4 -5 -6 -6 -7 -7 -7 -7 -6 -6 -5 -4 -4 -4 -4 -4 -4 -5
Wind_Speed
10 11 7 9 12 11 15 14 15 19 22 30 25 12 11 12 12 11 11 11 11 13 13 13 14 15 16 16 16 16 15 15 15 12 11 9 9 8 8 7 8 7 8 9
7 9 9 10 16 19 19 16 19 24 27 28 19 10 10 12 12 12 12 12 12 13 13 15 17 17 17 17 16 15 16 16 13 11 11 10 9 8 8 8 7 7 8 9
7 5 6 9 15 17 10 10 11 18 20 18 13 12 11 11 11 12 13 13 13 13 15 16 17 18 19 18 15 16 16 14 13 13 12 11 10 9 9 8 7 8 8 8
4 2 11 11 6 9 11 13 15 16 17 15 13 10 10 11 12 13 13 13 12 11 12 13 13 14 13 13 15 17 16 15 14 14 13 11 10 10 9 7 7 7 8 8
4 6 11 10 10 7 8 11 12 17 20 16 8 7 9 10 8 11 12 12 11 10 10 10 11 12 13 14 14 16 17 17 16 15 14 12 12 11 9 7 7 7 7 8
5 6 10 10 4 2 2 9 8 7 11 8 2 4 8 8 6 8 10 10 10 9 8 9 10 12 14 16 17 20 20 18 16 15 14 14 13 11 8 7 8 7 7 7
9 10 12 10 3 4 4 8 5 2 4 4 5 9 9 10 10 11 12 13 11 9 9 10 9 13 16 17 21 19 16 15 15 15 15 13 11 9 8 8 7 6 6 6
7 8 13 7 7 9 9 4 6 7 7 8 10 12 13 13 13 13 13 13 12 10 11 8 10 14 17 20 17 13 14 15 15 15 13 12 11 10 8 8 7 6 6 6
13 12 6 6 10 8 5 8 10 9 12 12 12 14 15 13 14 13 13 13 10 10 11 9 11 15 19 17 12 14 15 16 14 14 13 12 12 10 8 7 6 6 5 5
9 11 12 11 10 12 13 13 13 13 14 13 15 17 16 15 13 12 13 12 10 9 11 12 12 16 18 11 13 16 17 16 14 14 14 12 10 10 9 8 7 6 6 6
14 12 12 12 10 11 11 11 13 14 14 13 14 15 15 14 13 12 11 11 9 9 12 14 11 14 14 12 15 17 16 15 15 14 14 13 12 11 10 9 9 8 7 6
25 17 16 16 13 14 15 13 13 13 13 12 11 13 13 12 11 11 12 11 11 11 12 13 10 13 13 14 16 17 16 15 13 12 12 11 11 9 14 13 14 15 12 9
25 21 19 17 12 10 10 11 11 11 11 11 10 10 10 10 10 11 12 13 13 13 13 12 11 11 12 14 17 18 17 15 13 13 13 12 11 11 9 10 13 13 13 12
15 14 15 13 11 9 9 9 8 7 8 8 9 9 10 10 11 13 14 14 13 13 14 12 11 11 11 14 17 17 16 18 16 13 13 13 12 11 10 9 8 6 8 10
11 10 9 7 5 6 6 6 7 9 9 10 9 10 11 12 14 15 16 14 13 13 14 11 11 11 10 14 17 17 15 12 12 12 12 12 11 10 9 9 8 6 4 5
6 4 2 3 4 6 6 7 7 9 10 10 11 12 13 13 14 15 15 13 12 15 15 13 13 11 9 13 15 14 14 20 16 12 12 11 11 11 10 9 9 7 7 6
1 1 3 3 4 5 5 6 7 9 10 11 13 13 13 14 15 15 16 14 12 14 14 13 13 10 9 13 15 12 11 15 22 14 11 12 12 11 11 10 9 8 7 8
4 3 2 3 4 6 8 9 9 11 11 13 13 12 13 14 16 17 17 15 15 16 15 12 10 8 9 11 13 11 11 11 12 12 12 11 11 11 10 10 10 9 6 7
2 2 4 6 7 7 8 10 11 11 12 12 13 14 14 15 16 16 15 14 15 17 13 10 13 9 8 13 15 10 11 12 12 12 11 15 14 10 10 10 10 9 8 7
4 5 6 7 8 8 10 11 12 12 12 12 14 15 15 15 15 15 15 14 13 12 11 12 11 8 8 11 16 10 12 14 14 13 12 12 12 12 11 11 10 9 9 8
7 8 9 10 10 11 11 12 13 15 15 13 14 16 17 17 15 14 14 15 13 11 10 14 9 6 7 10 16 10 12 13 13 13 13 13 12 12 11 11 10 10 9 8
8 9 11 11 12 13 13 12 13 15 16 15 15 15 16 17 16 14 13 13 13 16 11 8 7 9 10 12 9 11 13 13 12 12 12 12 12 12 11 11 10 10 9 8
9 10 12 13 14 15 15 14 13 14 15 16 16 17 17 16 13 14 15 11 10 16 12 8 11 14 14 10 8 11 13 13 13 12 12 12 11 11 11 12 10 10 9 8
12 12 12 13 12 14 16 15 13 12 14 15 14 15 15 14 13 11 12 16 19 20 12 13 17 16 14 7 9 10 12 12 12 11 11 10 10 9 9 10 10 9 9 10
12 12 12 13 13 13 13 14 14 13 13 12 13 14 12 11 13 14 12 13 18 18 11 13 16 15 8 7 10 11 11 11 11 11 10 10 10 10 9 9 10 9 9 9
12 12 12 12 12 12 11 11 12 12 13 14 13 12 11 11 12 12 11 12 13 16 11 8 8 8 5 8 10 11 11 12 13 12 10 10 10 10 9 9 10 9 9 9
12 11 10 10 10 10 10 11 12 13 13 14 16 14 13 12 11 11 12 11 10 9 8 7 5 5 5 7 9 11 11 10 10 10 10 9 9 9 9 10 9 9 8 9
Wind_Direction
254 261 246 241 247 226 217 222 235 255 257 268 277 274 260 262 269 269 263 252 239 231 225 216 211 209 206 204 198 193 193 198 205 202 199 202 209 217 224 232 246 251 261 268
272 263 250 254 254 248 241 236 241 257 268 268 279 280 268 268 268 266 263 257 249 238 228 221 216 212 207 205 198 192 196 202 200 194 197 203 208 215 225 235 245 254 261 269
266 289 325 267 241 238 226 215 214 244 255 272 281 273 265 266 264 259 264 266 258 244 232 227 219 211 207 203 191 192 198 198 194 194 200 205 208 214 226 235 244 255 261 265
263 327 245 248 238 224 233 246 228 244 259 267 263 274 270 262 261 267 269 268 265 253 240 231 220 208 202 190 190 195 198 197 194 193 200 201 204 218 227 230 239 251 259 264
207 246 269 286 270 216 216 270 240 241 259 271 294 316 295 269 240 247 261 267 267 258 246 233 214 197 185 190 192 197 201 200 196 194 196 199 210 220 223 225 237 244 253 261
200 225 251 252 254 152 128 286 279 238 258 285 50 322 286 293 299 284 281 278 275 271 251 234 212 181 186 196 198 205 205 201 194 193 196 202 211 215 215 220 234 244 253 256
221 235 260 259 249 142 209 254 315 323 278 279 226 239 264 293 296 288 285 282 278 266 251 238 198 181 198 203 210 209 199 192 190 192 197 202 205 209 212 219 229 238 251 259
194 219 255 231 159 196 230 299 314 311 298 282 269 273 281 286 286 287 287 284 276 264 259 239 191 191 208 216 214 193 186 188 190 192 194 197 200 206 209 212 223 236 246 261
205 226 258 192 213 247 289 289 290 291 292 291 286 284 286 285 285 286 283 282 277 263 263 245 205 203 218 221 192 181 185 191 191 191 193 192 195 200 204 207 215 228 232 251
251 258 265 266 257 264 263 264 274 282 287 288 285 287 288 288 287 287 286 285 282 271 263 257 225 216 225 210 181 183 190 192 190 190 192 195 197 199 203 205 209 218 226 238
264 271 284 265 262 271 282 287 289 290 290 288 288 288 288 291 290 289 289 288 282 268 264 261 239 225 220 199 184 189 193 193 191 192 191 194 199 203 203 206 203 204 213 219
268 272 273 281 282 284 288 289 292 295 297 297 293 290 293 294 292 292 292 293 290 279 271 269 249 232 215 198 190 191 194 195 193 191 191 192 194 203 217 214 222 225 222 218
262 270 272 281 286 290 292 297 300 301 300 303 305 304 305 300 297 299 297 298 295 289 282 275 258 238 213 198 195 198 198 193 191 189 189 189 190 192 199 214 221 223 227 232
260 271 279 285 291 303 306 309 316 325 324 319 315 315 314 307 306 307 303 300 299 295 288 279 264 247 213 198 199 202 201 197 191 190 188 188 189 190 190 189 195 211 221 228
266 265 271 289 317 335 338 345 350 343 333 327 322 320 317 314 309 304 301 301 301 297 292 284 270 256 211 197 200 202 200 199 193 187 186 185 184 183 185 188 191 187 184 218
275 300 342 14 3 353 352 351 340 325 318 311 310 309 305 300 298 298 298 299 301 301 299 291 277 260 214 199 200 201 202 201 191 185 184 183 181 182 184 187 190 190 195 198
189 30 24 8 345 328 318 306 297 296 298 299 297 297 299 302 303 303 304 303 297 293 291 284 278 263 216 200 198 199 197 200 196 189 187 186 184 185 185 185 190 193 196 196
130 152 192 242 271 289 295 293 290 292 291 290 292 295 299 301 301 300 300 302 304 302 296 282 273 259 220 201 198 195 192 193 190 186 186 188 187 186 184 185 190 190 186 199
171 221 250 262 268 274 280 285 286 284 286 290 293 294 293 292 292 293 296 299 300 301 299 293 290 267 224 207 198 193 189 189 189 186 185 191 189 186 185 187 189 187 183 186
264 267 274 281 283 280 284 287 289 291 292 293 294 295 295 294 294 295 297 294 288 282 284 292 291 262 227 212 203 191 189 189 189 187 186 188 187 187 188 188 187 185 183 186
286 291 296 295 295 292 291 294 298 299 298 295 292 293 294 295 294 294 296 299 294 289 290 296 290 260 226 214 205 191 189 189 190 188 188 189 189 187 188 187 186 186 184 185
289 293 295 297 298 299 298 296 295 296 297 295 292 291 294 297 297 293 284 283 288 294 298 287 278 260 238 219 199 189 189 190 190 189 188 189 189 188 188 186 186 185 182 179
286 288 292 295 295 296 298 296 293 292 293 293 294 294 292 292 294 295 297 291 289 295 297 280 277 269 250 217 192 189 189 190 191 190 189 191 192 189 188 186 185 181 176 174
288 289 288 288 290 293 296 296 293 291 288 288 286 283 285 291 292 282 279 288 295 297 293 285 283 273 252 204 187 188 189 190 190 189 188 189 190 187 185 183 180 177 174 170
279 281 284 287 291 292 292 295 297 294 292 292 288 284 281 279 282 289 289 289 292 297 293 287 284 273 245 192 186 187 188 190 188 186 187 188 188 186 184 181 179 175 172 172
277 281 281 279 280 285 289 292 295 297 299 299 298 293 289 286 282 284 287 286 285 291 290 281 273 262 223 190 186 185 184 189 194 192 186 186 185 183 183 181 175 174 171 168
279 279 282 284 283 279 281 286 291 294 295 296 298 299 295 293 290 289 288 288 288 285 280 274 261 239 209 190 183 181 180 181 184 182 181 182 183 183 183 178 176 170 165 163
Height
1540 1535 1536 1534 1531 1530 1531 1525 1523 1504 1497 1479 1470 1472 1471 1468 1466 1463 1461 1459 1457 1455 1454 1452 1450 1448 1447 1448 1449 1451 1452 1454 1456 1459 1461 1462 1462 1462 1462 1460 1459 1456 1454 1450
1539 1531 1531 1530 1522 1517 1514 1512 1507 1497 1486 1469 1467 1467 1465 1462 1460 1458 1455 1454 1452 1450 1447 1445 1443 1441 1440 1439 1440 1442 1443 1445 1449 1451 1453 1454 1455 1456 1455 1454 1453 1451 1448 1444
1541 1531 1528 1525 1507 1501 1502 1497 1496 1491 1475 1464 1465 1463 1460 1457 1455 1453 1451 1449 1447 1444 1442 1439 1436 1434 1432 1431 1432 1433 1434 1437 1440 1443 1445 1447 1448 1449 1449 1448 1447 1445 1442 1439
1543 1533 1532 1501 1489 1489 1489 1484 1482 1475 1467 1462 1460 1458 1456 1454 1452 1449 1447 1445 1443 1440 1436 1433 1430 1427 1425 1424 1424 1424 1426 1428 1431 1434 1437 1439 1441 1441 1442 1442 1441 1439 1437 1433
1543 1536 1517 1500 1487 1484 1486 1480 1469 1467 1461 1457 1458 1456 1451 1449 1448 1447 1445 1442 1439 1435 1431 1427 1423 1420 1417 1416 1415 1416 1416 1419 1422 1426 1429 1431 1433 1435 1436 1436 1435 1433 1431 1427
1538 1536 1520 1491 1480 1478 1481 1480 1462 1461 1459 1458 1459 1462 1452 1448 1446 1443 1440 1437 1432 1428 1424 1419 1416 1412 1409 1406 1405 1405 1406 1410 1414 1418 1421 1423 1426 1428 1429 1429 1429 1427 1425 1422
1530 1526 1503 1485 1479 1480 1486 1474 1462 1459 1458 1458 1457 1454 1448 1444 1441 1438 1434 1430 1425 1421 1416 1412 1408 1404 1400 1397 1395 1396 1399 1402 1406 1409 1413 1417 1420 1422 1423 1423 1423 1422 1420 1417
1523 1524 1503 1475 1478 1478 1469 1462 1460 1458 1456 1454 1451 1447 1442 1438 1434 1430 1426 1422 1417 1412 1407 1404 1399 1395 1391 1388 1388 1390 1392 1394 1398 1402 1406 1409 1412 1415 1416 1417 1417 1416 1414 1412
1497 1485 1473 1471 1469 1466 1464 1461 1458 1456 1453 1450 1445 1439 1435 1430 1426 1422 1418 1413 1409 1404 1398 1395 1391 1386 1382 1381 1381 1382 1383 1385 1389 1394 1398 1401 1405 1407 1409 1410 1410 1410 1409 1407
1485 1475 1469 1466 1464 1462 1461 1457 1454 1451 1448 1444 1438 1433 1428 1423 1418 1413 1409 1405 1400 1395 1389 1385 1381 1377 1374 1373 1372 1372 1373 1376 1380 1384 1389 1393 1396 1399 1402 1403 1404 1404 1403 1401
1474 1468 1464 1459 1459 1457 1454 1452 1449 1445 1441 1437 1431 1426 1421 1415 1410 1406 1402 1397 1392 1387 1381 1376 1372 1368 1365 1363 1362 1363 1364 1367 1370 1375 1379 1384 1388 1391 1394 1396 1397 1398 1397 1396
1461 1460 1458 1452 1453 1452 1447 1443 1440 1437 1432 1429 1425 1419 1414 1409 1404 1400 1395 1390 1384 1379 1373 1368 1363 1358 1355 1354 1353 1353 1354 1357 1361 1365 1370 1375 1380 1384 1387 1390 1391 1391 1391 1391
1452 1451 1449 1445 1444 1443 1440 1436 1433 1430 1426 1422 1418 1414 1408 1403 1398 1393 1388 1383 1377 1371 1366 1360 1354 1350 1346 1344 1343 1343 1344 1347 1351 1355 1361 1366 1371 1376 1380 1383 1385 1385 1386 1385
1446 1444 1440 1439 1437 1435 1433 1430 1427 1423 1420 1416 1412 1408 1403 1397 1392 1387 1381 1376 1370 1364 1358 1352 1346 1342 1339 1336 1334 1334 1336 1339 1342 1346 1351 1357 1363 1368 1372 1375 1378 1379 1380 1380
1438 1437 1435 1433 1432 1430 1428 1425 1421 1418 1415 1411 1407 1402 1397 1391 1385 1380 1375 1369 1363 1357 1351 1345 1339 1334 1331 1327 1326 1326 1327 1330 1333 1338 1343 1349 1355 1360 1365 1369 1371 1373 1375 1375
1432 1431 1430 1429 1428 1426 1424 1421 1418 1414 1410 1406 1401 1396 1391 1385 1379 1373 1367 1362 1355 1348 1343 1337 1332 1327 1323 1319 1317 1318 1319 1322 1326 1331 1336 1341 1347 1352 1357 1361 1364 1367 1369 1370
1428 1427 1427 1426 1425 1423 1421 1418 1415 1410 1405 1400 1394 1389 1383 1377 1370 1364 1359 1354 1348 1342 1336 1330 1324 1320 1315 1312 1310 1310 1311 1315 1319 1323 1328 1334 1340 1345 1350 1354 1358 1360 1363 1365
1426 1426 1426 1425 1422 1419 1416 1412 1408 1403 1398 1392 1387 1381 1375 1369 1362 1355 1350 1344 1338 1333 1329 1323 1317 1312 1307 1304 1303 1303 1304 1307 1311 1315 1320 1327 1333 1338 1343 1348 1352 1355 1357 1359
1425 1424 1423 1420 1417 1414 1410 1405 1401 1396 1390 1385 1378 1372 1366 1360 1354 1347 1342 1336 1330 1324 1319 1315 1310 1304 1300 1297 1296 1296 1298 1301 1305 1309 1314 1320 1326 1332 1337 1341 1345 1349 1352 1354
1422 1420 1417 1414 1411 1407 1403 1398 1393 1387 1382 1376 1369 1362 1356 1351 1346 1339 1333 1328 1323 1318 1312 1307 1302 1297 1293 1290 1289 1289 1291 1294 1298 1303 1308 1314 1319 1325 1330 1335 1340 1343 1346 1349
1417 1414 1411 1407 1403 1399 1395 1390 1384 1378 1372 1367 1361 1354 1348 1342 1337 1331 1325 1318 1313 1310 1305 1300 1295 1290 1286 1284 1283 1282 1285 1288 1292 1297 1302 1307 1313 1319 1324 1329 1333 1338 1341 1344
1411 1408 1404 1400 1395 1390 1385 1381 1375 1369 1363 1358 1352 1346 1340 1333 1328 1322 1317 1312 1306 1302 1297 1292 1287 1283 1279 1277 1277 1277 1279 1282 1287 1291 1296 1302 1307 1313 1318 1323 1328 1332 1336 1339
1405 1401 1396 1391 1386 1380 1375 1371 1366 1360 1355 1349 1344 1338 1332 1327 1321 1315 1308 1303 1299 1294 1289 1284 1280 1276 1273 1271 1271 1271 1274 1277 1281 1286 1291 1296 1302 1308 1313 1318 1323 1327 1331 1334
1396 1392 1387 1382 1377 1371 1365 1360 1356 1351 1346 1341 1336 1331 1325 1318 1312 1308 1302 1296 1292 1287 1281 1277 1273 1269 1267 1266 1265 1267 1269 1272 1276 1281 1286 1292 1298 1304 1309 1314 1318 1323 1327 1330
1387 1382 1377 1372 1367 1362 1357 1351 1346 1341 1336 1331 1327 1322 1317 1312 1306 1299 1294 1289 1283 1279 1274 1269 1266 1263 1261 1260 1260 1262 1264 1268 1272 1277 1282 1288 1293 1299 1304 1309 1314 1319 1323 1326
1376 1372 1367 1363 1359 1354 1349 1344 1339 1333 1328 1322 1317 1313 1308 1303 1298 1292 1286 1281 1276 1271 1267 1263 1259 1256 1255 1254 1255 1257 1260 1264 1269 1273 1278 1284 1289 1295 1301 1306 1310 1315 1319 1322
1366 1362 1358 1353 1350 1346 1342 1337 1331 1326 1321 1316 1309 1304 1300 1295 1290 1284 1279 1274 1269 1265 1260 1256 1253 1251 1250 1250 1251 1253 1256 1260 1265 1269 1274 1280 1286 1292 1297 1302 1307 1312 1316 1319